[[[{"header":{"parameterUnit":"kt","parameterCategory":2,"dx":1,"dy":1,"la1":30.253999710083008,"la2":30.299108505249023,"lo1":-89.0895004272461,"lo2":-89.04439544677734,"nx":28,"ny":28,"refTime":"2022-09-20T09:00:00:Z","depth":"0","parameterNumber":2,"parameterNumberName":"U-component_of_CURRENTS"},"data":[0.4477,0.4459,0.4518,0.4407,0.4421,0.434,0.4338,0.4394,0.4584,0.4889,0.5285,0.565,0.6702,0.7914,0.8683,0.8766,0.832,0.8027,0.7838,0.8513,0.8504,0.8496,0.8326,0.8565,0.8564,0.6833,0.6821,0.6812,0.4609,0.4672,0.4702,0.4734,0.4687,0.4804,0.4861,0.4849,0.4908,0.5222,0.5431,0.624,0.7063,0.7902,0.896,0.9056,0.8731,0.8971,0.8186,0.8129,0.896,0.8817,0.9165,0.9165,0.9165,0.9165,0.9165,0.9165,0.4847,0.4853,0.4921,0.4961,0.4996,0.5016,0.5017,0.5132,0.5244,0.5431,0.5725,0.6064,0.6944,0.8008,0.8372,0.9037,0.8663,0.9043,0.8916,0.8345,0.8107,0.8781,0.9346,0.9345,0.9345,0.9344,0.9344,0,0.4995,0.5059,0.5094,0.5159,0.5195,0.5245,0.5316,0.5374,0.5555,0.5726,0.5929,0.6157,0.6943,0.7475,0.8206,0.8595,0.8437,0.8859,0.8673,0.8462,0.772,0.7534,0.8141,0.8866,0.8863,0.886,0.8858,0.8857,0.5105,0.5153,0.527,0.5285,0.5309,0.5388,0.5422,0.5583,0.5641,0.5945,0.6005,0.6442,0.6676,0.7464,0.7935,0.8485,0.8149,0.8763,0.8599,0.8316,0.8089,0.7459,0.7335,0.8819,0.8824,0.8828,0.8831,0,0.5139,0.5213,0.5272,0.537,0.5406,0.5446,0.5538,0.5608,0.5783,0.5927,0.6002,0.6284,0.6713,0.7041,0.7552,0.7723,0.7989,0.8229,0.8118,0.8068,0.8086,0.7907,0.7945,0.7859,0.8664,0.8668,0.8672,0,0.5159,0.5203,0.5268,0.5294,0.5395,0.5412,0.5539,0.5602,0.5758,0.5866,0.6036,0.6188,0.6529,0.6842,0.7055,0.7503,0.7588,0.7661,0.7626,0.7574,0.7556,0.744,0.7249,0.7748,0.7743,0.774,0.7736,0,0.5062,0.5146,0.5231,0.5238,0.5282,0.5343,0.5372,0.5485,0.555,0.577,0.5847,0.6209,0.6333,0.6686,0.6856,0.6726,0.7399,0.7197,0.7396,0.7388,0.7484,0.7462,0.7959,0.7731,0.773,0.7728,0.7727,0,0.4986,0.5017,0.5131,0.5153,0.5161,0.5217,0.5293,0.5363,0.5521,0.5551,0.5747,0.5764,0.6112,0.597,0.6511,0.6271,0.6433,0.652,0.6537,0.6522,0.6189,0.6623,0.7206,0.7021,0.6522,0.6513,0.6504,0,0.485,0.4942,0.4905,0.4992,0.5006,0.4932,0.5034,0.5075,0.5088,0.5201,0.5315,0.5436,0.5385,0.5412,0.5668,0.5767,0.6054,0.5706,0.6024,0.6036,0.6007,0.6547,0.6572,0.7042,0.6383,0.6396,0.6405,0,0.4697,0.4679,0.468,0.4686,0.4643,0.463,0.473,0.4781,0.4862,0.4875,0.5037,0.5191,0.5181,0.5215,0.5157,0.5371,0.5833,0.5244,0.5249,0.5439,0.6365,0.6366,0.6447,0.5764,0.578,0.5792,0.6308,0,0.4523,0.4532,0.4557,0.4537,0.4524,0.454,0.4474,0.4482,0.4425,0.4419,0.4593,0.4573,0.4654,0.4656,0.4593,0.4963,0.4884,0.4756,0.4608,0.4928,0.5091,0.5168,0.4174,0.4168,0.4163,0.4159,0,0,0.4359,0.4373,0.4253,0.4285,0.427,0.4121,0.4174,0.4154,0.4072,0.4113,0.4002,0.4129,0.4083,0.4298,0.4381,0.4303,0.4395,0.4235,0.4713,0.4775,0.4832,0.5008,0.5087,0.4151,0.4149,0.4147,0.4146,0,0.4264,0.4193,0.4234,0.4195,0.4119,0.4047,0.4059,0.3943,0.3915,0.3951,0.3872,0.3954,0.3893,0.3945,0.3959,0.421,0.4158,0.4156,0.4414,0.4661,0.4728,0.4789,0.4975,0.5049,0.4134,0.4135,0.4135,0,0.4123,0.4056,0.4055,0.3985,0.3919,0.393,0.3775,0.375,0.3786,0.3597,0.363,0.3604,0.3569,0.3652,0.368,0.3574,0.3948,0.3708,0.3733,0.3842,0.4093,0.4169,0.4236,0.3378,0.3376,0.3374,0,0,0.4054,0.4047,0.3932,0.3953,0.3923,0.3802,0.3775,0.3695,0.3627,0.3599,0.3514,0.347,0.3511,0.3486,0.3489,0.3546,0.3632,0.3622,0.3658,0.3687,0.381,0.4067,0.4139,0.3367,0.3367,0.3366,0,0,0.4008,0.3885,0.3833,0.3842,0.3785,0.3646,0.3652,0.3579,0.3535,0.3516,0.3383,0.336,0.3448,0.3357,0.3276,0.3428,0.3276,0.329,0.3478,0.352,0.3555,0.3705,0.3096,0,0,0,0,0,0.3861,0.3906,0.3861,0.3846,0.3727,0.3682,0.3664,0.3539,0.3473,0.3492,0.3422,0.3308,0.3299,0.3222,0.3209,0.3321,0.3272,0.3289,0.3305,0.3564,0.361,0.365,0,0,0,0,0,0,0.3854,0.3837,0.3859,0.3728,0.37,0.3678,0.3534,0.3501,0.3468,0.3449,0.3327,0.3304,0.32,0.3219,0.3209,0.332,0.3098,0.3279,0.3293,0.3306,0.358,0.3618,0.3651,0,0,0,0,0,0.3848,0.3834,0.3678,0.3725,0.3701,0.3551,0.353,0.3502,0.3472,0.3334,0.3306,0.3383,0.3204,0.3189,0.3212,0.3328,0.3104,0.3101,0.3288,0.3299,0.3309,0.3599,0,0,0,0,0,0,0.3844,0.3801,0.3669,0.3657,0.3695,0.3549,0.3523,0.3503,0.3357,0.3331,0.3383,0.3369,0.3208,0.3195,0.3184,0.3341,0.3108,0.3105,0.3103,0.3297,0.3305,0.3313,0,0,0,0,0,0,0.3807,0.3792,0.3663,0.3632,0.3614,0.3549,0.3526,0.3509,0.3358,0.3413,0.3397,0.3379,0.3234,0.32,0.3191,0.3168,0.3112,0.3109,0.3107,0.3106,0.3304,0.3311,0,0,0,0,0,0,0.3798,0.3784,0.3634,0.3621,0.3605,0.3452,0.3531,0.3419,0.3319,0.3422,0.3309,0.3304,0.3243,0.323,0.3197,0.3179,0.3171,0.3112,0.311,0.3108,0.3108,0,0,0,0,0,0,0,0.3791,0.3918,0.3748,0.3611,0.3597,0.3541,0.3537,0.3533,0.3318,0.3314,0.331,0.3306,0.3129,0.3125,0.3122,0.3187,0,0,0.3112,0.3111,0,0,0,0,0,0,0,0,0.392,0.3918,0.3747,0.3745,0.3742,0.354,0.3537,0.3534,0.3318,0.3314,0.3311,0.3307,0.3128,0.3125,0.3123,0,0,0,0,0,0,0,0,0,0,0,0,0,0,0,0.3747,0.3745,0,0.354,0.3537,0.3535,0.3317,0.3314,0.3311,0.3309,0.3127,0.3125,0.3123,0,0,0,0,0,0,0,0,0,0,0,0,0,0,0,0,0,0,0,0,0,0,0,0,0,0,0,0,0,0,0,0,0,0,0,0,0,0,0,0,0,0,0,0,0,0,0,0,0,0,0,0,0,0,0,0,0,0,0,0,0,0,0,0,0,0,0,0,0]}],[{"header":{"parameterUnit":"kt","parameterCategory":2,"dx":1,"dy":1,"la1":30.253999710083008,"la2":30.299108505249023,"lo1":-89.0895004272461,"lo2":-89.04439544677734,"nx":28,"ny":28,"refTime":"2022-09-20T09:00:00:Z","depth":"0","parameterNumber":3,"parameterNumberName":"V-component_of_CURRENTS"},"data":[0.1502,0.1573,0.1655,0.1871,0.2009,0.2223,0.2374,0.2599,0.2869,0.3357,0.3733,0.4046,0.4212,0.2486,0.1234,0.0693,-0.0023,-0.0271,-0.0647,-0.0055,-0.0005,0.0042,0.0006,-0.0447,-0.0449,-0.1348,-0.1358,-0.1365,0.1541,0.1613,0.1721,0.1882,0.2038,0.2136,0.2394,0.2545,0.2777,0.3105,0.3301,0.3617,0.32,0.2727,0.1998,0.1174,0.0771,0.0655,0.0509,0.0365,0.123,0.1244,0.1048,0.1048,0.1048,0.1049,0.1049,0.105,0.1602,0.1648,0.1715,0.1847,0.1988,0.2176,0.2318,0.25,0.2736,0.3041,0.3121,0.3344,0.3234,0.2787,0.227,0.1573,0.1503,0.1362,0.113,0.105,0.0852,0.176,0.1701,0.1701,0.17,0.1699,0.1699,0,0.1632,0.1669,0.172,0.184,0.1952,0.2114,0.2285,0.2416,0.2654,0.2848,0.3041,0.3138,0.2988,0.2832,0.2432,0.214,0.1652,0.1849,0.1495,0.1296,0.1128,0.0866,0.1813,0.1863,0.1863,0.1863,0.1864,0.1864,0.1651,0.1671,0.1775,0.1833,0.1872,0.2018,0.2141,0.2332,0.2482,0.2774,0.2879,0.2962,0.3038,0.2779,0.246,0.2128,0.1794,0.1868,0.1831,0.1456,0.1148,0.1028,0.0856,0.1865,0.1864,0.1864,0.1864,0,0.1658,0.1671,0.1735,0.1828,0.1872,0.1967,0.2168,0.2314,0.2484,0.2705,0.2774,0.2919,0.2893,0.2742,0.2543,0.2314,0.191,0.1952,0.1995,0.1925,0.1428,0.1206,0.0974,0.0762,0.1726,0.1725,0.1723,0,0.1645,0.1686,0.172,0.1742,0.187,0.1924,0.2108,0.2209,0.2401,0.2567,0.2646,0.2775,0.2694,0.2638,0.242,0.2199,0.2269,0.1936,0.1855,0.1913,0.1905,0.1576,0.1347,0.2014,0.2015,0.2016,0.2017,0,0.1604,0.1657,0.1701,0.1716,0.1802,0.1875,0.195,0.2104,0.2218,0.2406,0.2517,0.2597,0.2636,0.252,0.232,0.2282,0.2202,0.2112,0.1864,0.1851,0.1864,0.185,0.1663,0.2018,0.2019,0.2019,0.2019,0,0.1568,0.1585,0.1638,0.1719,0.1741,0.1794,0.195,0.2024,0.2179,0.2237,0.234,0.2353,0.2427,0.2289,0.2234,0.2236,0.2056,0.1954,0.1945,0.1855,0.1688,0.1644,0.1761,0.1426,0.1734,0.1733,0.1732,0,0.151,0.1547,0.1553,0.1618,0.1639,0.1657,0.1746,0.1816,0.1872,0.199,0.2007,0.2094,0.1989,0.2025,0.2026,0.1958,0.1914,0.1915,0.1737,0.1731,0.1673,0.1794,0.1859,0.1748,0.1722,0.1723,0.1724,0,0.1458,0.1461,0.1465,0.148,0.1491,0.152,0.159,0.1662,0.1753,0.175,0.188,0.1881,0.1887,0.1886,0.184,0.1843,0.1877,0.1734,0.1731,0.1677,0.1841,0.1779,0.1779,0.1845,0.1848,0.1851,0.1716,0,0.1369,0.1392,0.1412,0.1423,0.1445,0.1467,0.1471,0.1507,0.1503,0.1524,0.161,0.1578,0.162,0.1595,0.1549,0.165,0.1562,0.1519,0.1454,0.1563,0.1476,0.1483,0.1351,0.1348,0.1346,0.1344,0,0,0.1297,0.1333,0.1319,0.1335,0.1347,0.1307,0.1341,0.1353,0.1346,0.1389,0.1332,0.1382,0.1334,0.1424,0.1452,0.1404,0.136,0.1393,0.1495,0.1513,0.1528,0.1454,0.1464,0.1339,0.1338,0.1337,0.1336,0,0.1259,0.1274,0.1306,0.1303,0.1289,0.1282,0.1287,0.1273,0.128,0.1305,0.1267,0.1291,0.1256,0.1272,0.1268,0.1362,0.1269,0.133,0.1463,0.1472,0.1493,0.1511,0.1442,0.1453,0.133,0.1331,0.1331,0,0.1195,0.1193,0.1215,0.1228,0.1216,0.1234,0.1184,0.1196,0.1224,0.1143,0.1176,0.1153,0.1118,0.1151,0.1154,0.1113,0.118,0.115,0.1162,0.1209,0.1216,0.1239,0.126,0.0993,0.0992,0.0992,0,0,0.116,0.1191,0.1175,0.1216,0.1213,0.1185,0.1188,0.1171,0.1158,0.1154,0.1124,0.1097,0.1099,0.1087,0.1075,0.1093,0.1059,0.1114,0.113,0.1143,0.1197,0.1208,0.123,0.099,0.099,0.0989,0,0,0.1139,0.1136,0.1119,0.1172,0.1163,0.1144,0.116,0.1138,0.1134,0.1126,0.107,0.106,0.1082,0.1034,0.1013,0.1053,0.098,0.0984,0.1097,0.1116,0.1131,0.1204,0.0937,0,0,0,0,0,0.1084,0.1137,0.1122,0.1126,0.1142,0.1152,0.1152,0.1128,0.1102,0.112,0.1094,0.1039,0.102,0.0999,0.099,0.1033,0.096,0.0966,0.097,0.112,0.1141,0.1158,0,0,0,0,0,0,0.1086,0.1093,0.1119,0.1105,0.1107,0.1151,0.1105,0.11,0.1099,0.1095,0.1049,0.1038,0.1,0.0999,0.0992,0.1035,0.0939,0.0962,0.0967,0.0971,0.1127,0.1144,0.1159,0,0,0,0,0,0.1087,0.1092,0.1129,0.1103,0.1105,0.1081,0.1104,0.1099,0.1101,0.1047,0.1037,0.1082,0.1002,0.0992,0.0994,0.104,0.0943,0.0941,0.0965,0.0969,0.0972,0.1136,0,0,0,0,0,0,0.1087,0.1088,0.1128,0.1127,0.1088,0.1078,0.1079,0.1099,0.1052,0.1044,0.1076,0.1073,0.1004,0.0996,0.0988,0.1047,0.0947,0.0945,0.0943,0.0968,0.0971,0.0973,0,0,0,0,0,0,0.1084,0.1087,0.1128,0.1111,0.1107,0.1076,0.1076,0.1056,0.105,0.1083,0.108,0.1075,0.0995,0.0998,0.0992,0.0964,0.095,0.0948,0.0946,0.0945,0.097,0.0972,0,0,0,0,0,0,0.1084,0.1087,0.1111,0.1109,0.1106,0.109,0.1055,0.1062,0.107,0.1085,0.1066,0.1064,0.0997,0.0992,0.0996,0.097,0.0966,0.095,0.0948,0.0947,0.0946,0,0,0,0,0,0,0,0.1085,0.1077,0.1134,0.1107,0.1104,0.1114,0.1114,0.1114,0.107,0.1068,0.1066,0.1065,0.0963,0.0961,0.0958,0.0975,0,0,0.095,0.0949,0,0,0,0,0,0,0,0,0.1075,0.1077,0.1134,0.1133,0.1133,0.1114,0.1114,0.1114,0.1069,0.1068,0.1067,0.1065,0.0962,0.096,0.0958,0,0,0,0,0,0,0,0,0,0,0,0,0,0,0,0.1134,0.1133,0,0.1114,0.1114,0.1114,0.1069,0.1068,0.1067,0.1066,0.0962,0.096,0.0958,0,0,0,0,0,0,0,0,0,0,0,0,0,0,0,0,0,0,0,0,0,0,0,0,0,0,0,0,0,0,0,0,0,0,0,0,0,0,0,0,0,0,0,0,0,0,0,0,0,0,0,0,0,0,0,0,0,0,0,0,0,0,0,0,0,0,0,0,0]}]],[[{"header":{"parameterUnit":"kt","parameterCategory":2,"dx":1,"dy":1,"la1":30.253999710083008,"la2":30.299108505249023,"lo1":-89.0895004272461,"lo2":-89.04439544677734,"nx":28,"ny":28,"refTime":"2022-09-20T09:00:00:Z","depth":"2","parameterNumber":2,"parameterNumberName":"U-component_of_CURRENTS"},"data":[0.1613,0.164,0.1663,0.1743,0.1852,0.1932,0.2003,0.2003,0.2021,0.1968,0.1935,0.2129,0.2292,0.1897,0.1901,0.1803,0.2003,0.1687,0.2584,0.2447,0.2506,0.2695,0.2397,0,0,0,0,0,0.1636,0.1686,0.1743,0.1844,0.1906,0.2027,0.2148,0.2162,0.2293,0.2419,0.2603,0.2345,0.2409,0.2604,0.2367,0.2375,0.2263,0.2357,0.2201,0.2266,0.2326,0.2092,0.1677,0.1675,0.1674,0.1673,0,0,0.1685,0.1707,0.18,0.1893,0.1991,0.2092,0.215,0.2312,0.2463,0.2675,0.2897,0.3029,0.3119,0.3132,0.3169,0.3117,0.3315,0.3149,0.3168,0.3196,0.3009,0.2919,0.2834,0.284,0.2845,0.2849,0.2853,0,0.1744,0.1794,0.1856,0.1965,0.2057,0.216,0.2318,0.2388,0.2652,0.2802,0.3071,0.3268,0.3555,0.3535,0.3713,0.3685,0.369,0.3607,0.427,0.3148,0.3059,0.3038,0.3053,0.303,0.3037,0.3042,0.3046,0.3049,0.1841,0.1849,0.2001,0.2053,0.2139,0.2261,0.2359,0.2573,0.268,0.301,0.3085,0.3425,0.3641,0.3974,0.3944,0.4093,0.4278,0.3768,0.3538,0.4041,0.4025,0.4007,0.3989,0.3125,0.3116,0.3108,0.3101,0,0.1898,0.1992,0.2047,0.2216,0.227,0.2333,0.2547,0.2633,0.2837,0.3003,0.3075,0.3375,0.365,0.3861,0.4087,0.4056,0.4173,0.4196,0.3741,0.3681,0.4011,0.3991,0.4181,0.4179,0.4177,0.4176,0.4174,0,0.2046,0.2072,0.2236,0.2257,0.2331,0.2478,0.2582,0.2709,0.2905,0.3027,0.3213,0.334,0.3552,0.374,0.3835,0.3981,0.4074,0.3951,0.3954,0.3551,0.3507,0.3914,0.3892,0.4079,0.4077,0.4075,0.4073,0,0.2137,0.225,0.2289,0.233,0.2492,0.2551,0.2649,0.2824,0.2917,0.3103,0.3194,0.3376,0.3499,0.3617,0.3783,0.3724,0.4003,0.392,0.3901,0.3896,0.3535,0.349,0.4071,0.4071,0.407,0.4069,0.4069,0,0.2273,0.2332,0.2385,0.2505,0.2532,0.2595,0.2729,0.2818,0.2997,0.3076,0.3212,0.329,0.345,0.3426,0.3651,0.3578,0.366,0.3704,0.3713,0.3587,0.3524,0.3312,0.3354,0.3805,0.3802,0.3799,0.3797,0,0.2328,0.239,0.2472,0.253,0.2562,0.2673,0.2758,0.2863,0.2953,0.3052,0.3154,0.3241,0.3273,0.3317,0.3398,0.3467,0.3561,0.3441,0.3598,0.3604,0.3486,0.3603,0.3154,0.3328,0.376,0.3764,0.3767,0,0.2356,0.2484,0.249,0.2525,0.2639,0.2669,0.2765,0.2856,0.2914,0.3005,0.3083,0.3184,0.3232,0.3263,0.3291,0.335,0.3502,0.3345,0.3346,0.3446,0.369,0.3569,0.3583,0.3479,0.3482,0.3485,0.3738,0,0.2456,0.2493,0.2513,0.2586,0.2637,0.2671,0.2755,0.281,0.2857,0.2912,0.3009,0.3057,0.3129,0.3147,0.3158,0.3267,0.328,0.3235,0.3205,0.3284,0.3384,0.3408,0.3112,0.3111,0.3109,0.3108,0,0,0.2456,0.2485,0.2542,0.2582,0.2615,0.2676,0.2705,0.2758,0.2816,0.2854,0.2855,0.2963,0.2985,0.3072,0.311,0.3108,0.3158,0.3111,0.3234,0.3248,0.3261,0.3361,0.3384,0.3106,0.3106,0.3105,0.3105,0,0.2475,0.2511,0.2531,0.2575,0.2639,0.2672,0.2685,0.2737,0.277,0.2828,0.2841,0.2896,0.2945,0.2986,0.301,0.3085,0.3105,0.3094,0.3156,0.3221,0.3237,0.325,0.3352,0.3374,0.3102,0.3102,0.3102,0,0.2488,0.2523,0.2533,0.2586,0.2622,0.2661,0.2665,0.2707,0.2744,0.2742,0.2796,0.2823,0.2852,0.2915,0.294,0.2922,0.3062,0.2991,0.2998,0.3008,0.3073,0.3091,0.3106,0.2906,0.2905,0.2905,0,0,0.2503,0.2528,0.2574,0.259,0.2614,0.2652,0.2674,0.2696,0.2727,0.2741,0.2763,0.2793,0.2833,0.2854,0.2883,0.2933,0.2963,0.2969,0.2978,0.2985,0.3,0.3067,0.3083,0.2903,0.2903,0.2903,0,0,0.2502,0.2551,0.2568,0.2585,0.2627,0.2665,0.2686,0.2699,0.2732,0.2738,0.2748,0.2755,0.281,0.2811,0.2784,0.2883,0.2843,0.2849,0.2891,0.2902,0.2911,0.2923,0.2771,0,0,0,0,0,0.2541,0.2547,0.2562,0.257,0.2618,0.2659,0.2668,0.2694,0.2692,0.271,0.2734,0.2727,0.2807,0.2784,0.2789,0.2837,0.2878,0.2882,0.2886,0.2952,0.2964,0.2974,0,0,0,0,0,0,0.2545,0.2553,0.2562,0.2597,0.2608,0.2658,0.2656,0.2664,0.2691,0.2693,0.2723,0.2727,0.2737,0.278,0.2786,0.2832,0.2769,0.288,0.2883,0.2887,0.2956,0.2966,0.2974,0,0,0,0,0,0.2547,0.2554,0.262,0.2597,0.2607,0.2647,0.2656,0.2662,0.2683,0.2708,0.2713,0.2703,0.2737,0.2742,0.2783,0.283,0.2766,0.2768,0.2882,0.2885,0.2888,0.2961,0,0,0,0,0,0,0.255,0.256,0.2623,0.2628,0.2593,0.2646,0.2653,0.266,0.2697,0.2703,0.2687,0.2688,0.2737,0.2741,0.2745,0.283,0.2763,0.2765,0.2766,0.2884,0.2887,0.2889,0,0,0,0,0,0,0.2557,0.2564,0.2625,0.2618,0.2623,0.2644,0.265,0.2672,0.2696,0.2674,0.2676,0.2687,0.2727,0.274,0.2744,0.2776,0.276,0.2762,0.2764,0.2764,0.2886,0.2888,0,0,0,0,0,0,0.2561,0.2567,0.2617,0.262,0.2624,0.2679,0.2663,0.2707,0.2702,0.2671,0.2701,0.2701,0.2725,0.2729,0.2742,0.2774,0.2776,0.276,0.2762,0.2763,0.2763,0,0,0,0,0,0,0,0.2564,0.2515,0.2596,0.2622,0.2625,0.2673,0.2674,0.2675,0.2702,0.2701,0.2701,0.2701,0.2749,0.2751,0.2753,0.2771,0,0,0.276,0.2761,0,0,0,0,0,0,0,0,0.2513,0.2514,0.2596,0.2597,0.2599,0.2673,0.2674,0.2675,0.2702,0.2701,0.2701,0.2701,0.275,0.2751,0.2753,0,0,0,0,0,0,0,0,0,0,0,0,0,0,0,0.2596,0.2597,0,0.2673,0.2674,0.2675,0.2701,0.2701,0.2701,0.2701,0.275,0.2752,0.2753,0,0,0,0,0,0,0,0,0,0,0,0,0,0,0,0,0,0,0,0,0,0,0,0,0,0,0,0,0,0,0,0,0,0,0,0,0,0,0,0,0,0,0,0,0,0,0,0,0,0,0,0,0,0,0,0,0,0,0,0,0,0,0,0,0,0,0,0,0]}],[{"header":{"parameterUnit":"kt","parameterCategory":2,"dx":1,"dy":1,"la1":30.253999710083008,"la2":30.299108505249023,"lo1":-89.0895004272461,"lo2":-89.04439544677734,"nx":28,"ny":28,"refTime":"2022-09-20T09:00:00:Z","depth":"2","parameterNumber":3,"parameterNumberName":"V-component_of_CURRENTS"},"data":[0.0345,0.0494,0.0536,0.0851,0.0969,0.1236,0.1414,0.1722,0.1804,0.1877,0.1703,0.1516,0.0717,0.0174,-0.0326,-0.0629,-0.0684,-0.0674,-0.0512,-0.058,-0.0571,-0.0959,-0.0974,0,0,0,0,0,0.0219,0.0282,0.0402,0.0556,0.0725,0.0723,0.0986,0.1187,0.1549,0.1611,0.179,0.1149,0.0771,0.0249,-0.0428,-0.0792,-0.0882,-0.0861,-0.0967,-0.0965,-0.0964,-0.0974,-0.0979,-0.0979,-0.0979,-0.0979,0,0,0.0007,0.0081,0.015,0.0275,0.0381,0.0572,0.0723,0.0909,0.1135,0.1407,0.1361,0.1372,0.0825,0.0217,-0.0119,-0.0546,-0.0575,-0.0818,-0.0822,-0.0825,-0.0824,-0.0773,-0.0791,-0.079,-0.0789,-0.0788,-0.0788,0,-0.0138,-0.0132,-0.0074,0.0043,0.0138,0.0253,0.0381,0.0496,0.0572,0.0709,0.0961,0.1026,0.0768,0.043,-0.0017,-0.0254,-0.0657,-0.0687,-0.059,-0.0952,-0.0903,-0.0916,-0.0912,-0.095,-0.095,-0.095,-0.0949,-0.0949,-0.0283,-0.0254,-0.0199,-0.013,-0.0091,-0.0008,0.0072,0.0083,0.0201,0.0342,0.0458,0.0458,0.0532,0.0295,-0.0111,-0.042,-0.0466,-0.0676,-0.0844,-0.074,-0.0751,-0.0751,-0.075,-0.0947,-0.0948,-0.0948,-0.0948,0,-0.0342,-0.0349,-0.0283,-0.0246,-0.0227,-0.0162,-0.0071,0.0006,0.0014,0.0151,0.016,0.0149,0.0112,-0.0111,-0.0303,-0.0505,-0.0656,-0.0691,-0.0717,-0.0733,-0.0764,-0.076,-0.0767,-0.0764,-0.0762,-0.0761,-0.0759,0,-0.0407,-0.0367,-0.0342,-0.0315,-0.0249,-0.0256,-0.0181,-0.0184,-0.0149,-0.0056,-0.0176,-0.0081,-0.0342,-0.0382,-0.0556,-0.0655,-0.0679,-0.0821,-0.0832,-0.0909,-0.0907,-0.0917,-0.0915,-0.0933,-0.0933,-0.0934,-0.0934,0,-0.0418,-0.0398,-0.0367,-0.0358,-0.0331,-0.0314,-0.0301,-0.031,-0.0273,-0.0298,-0.0231,-0.038,-0.0359,-0.0527,-0.0616,-0.0675,-0.0717,-0.082,-0.0839,-0.0832,-0.0928,-0.0928,-0.0934,-0.0934,-0.0934,-0.0934,-0.0934,0,-0.0438,-0.0424,-0.0399,-0.036,-0.0353,-0.0346,-0.0325,-0.0333,-0.0362,-0.0358,-0.0409,-0.0445,-0.0532,-0.0574,-0.0717,-0.0698,-0.0774,-0.0826,-0.0827,-0.0783,-0.0794,-0.0853,-0.0862,-0.0827,-0.0826,-0.0826,-0.0825,0,-0.0433,-0.0419,-0.0429,-0.0404,-0.0391,-0.04,-0.0416,-0.0436,-0.0437,-0.0427,-0.0515,-0.0532,-0.0616,-0.0608,-0.0684,-0.0742,-0.0794,-0.0777,-0.0853,-0.0854,-0.0788,-0.0781,-0.0865,-0.0854,-0.0819,-0.0819,-0.082,0,-0.0435,-0.0425,-0.0422,-0.0401,-0.0419,-0.0415,-0.0439,-0.047,-0.0449,-0.0486,-0.0481,-0.0599,-0.06,-0.0652,-0.0709,-0.0758,-0.078,-0.0778,-0.0782,-0.076,-0.0847,-0.0779,-0.0776,-0.0829,-0.0831,-0.0832,-0.0815,0,-0.0431,-0.0423,-0.042,-0.0432,-0.0438,-0.0432,-0.0459,-0.0453,-0.0442,-0.0468,-0.051,-0.0576,-0.0632,-0.0656,-0.0707,-0.0766,-0.0756,-0.0795,-0.0809,-0.0814,-0.0802,-0.0806,-0.0771,-0.0772,-0.0772,-0.0773,0,0,-0.0429,-0.0437,-0.0448,-0.0451,-0.0454,-0.0457,-0.0456,-0.0476,-0.0499,-0.0511,-0.049,-0.0589,-0.0639,-0.0736,-0.0738,-0.0766,-0.0777,-0.076,-0.0807,-0.081,-0.0814,-0.0803,-0.0806,-0.0774,-0.0774,-0.0774,-0.0774,0,-0.0448,-0.0443,-0.0444,-0.0454,-0.0458,-0.0478,-0.0465,-0.0477,-0.0478,-0.0503,-0.0542,-0.0576,-0.0644,-0.0707,-0.0752,-0.0771,-0.0789,-0.0774,-0.0757,-0.081,-0.0813,-0.0815,-0.0805,-0.0807,-0.0776,-0.0776,-0.0776,0,-0.0458,-0.0474,-0.0474,-0.0496,-0.0502,-0.0513,-0.0515,-0.0504,-0.0516,-0.056,-0.0567,-0.0605,-0.0683,-0.073,-0.0747,-0.0754,-0.0802,-0.0793,-0.0791,-0.0789,-0.0844,-0.0847,-0.0849,-0.0818,-0.0818,-0.0818,0,0,-0.0471,-0.0475,-0.0504,-0.0503,-0.0505,-0.052,-0.0522,-0.0517,-0.0545,-0.0546,-0.0574,-0.0613,-0.0673,-0.0696,-0.0743,-0.0791,-0.081,-0.0796,-0.0794,-0.0792,-0.0789,-0.0843,-0.0845,-0.0818,-0.0818,-0.0818,0,0,-0.0481,-0.051,-0.0508,-0.051,-0.0527,-0.0563,-0.0551,-0.0549,-0.0567,-0.0548,-0.0602,-0.0615,-0.0649,-0.0684,-0.0675,-0.0738,-0.0749,-0.0753,-0.0713,-0.0712,-0.071,-0.0692,-0.0698,0,0,0,0,0,-0.0516,-0.0512,-0.051,-0.0514,-0.0541,-0.0569,-0.0572,-0.0569,-0.0544,-0.0537,-0.0569,-0.0583,-0.069,-0.0683,-0.0699,-0.0699,-0.0814,-0.0815,-0.0815,-0.0776,-0.0774,-0.0772,0,0,0,0,0,0,-0.0518,-0.0523,-0.0511,-0.0547,-0.0553,-0.0569,-0.0563,-0.0563,-0.0544,-0.0539,-0.0578,-0.0586,-0.0627,-0.0678,-0.0691,-0.069,-0.0693,-0.0814,-0.0815,-0.0815,-0.0775,-0.0773,-0.0772,0,0,0,0,0,-0.0519,-0.0523,-0.0561,-0.0547,-0.0552,-0.0555,-0.0561,-0.0561,-0.0536,-0.06,-0.0604,-0.0526,-0.0628,-0.064,-0.0686,-0.0683,-0.0684,-0.0689,-0.0815,-0.0815,-0.0815,-0.0774,0,0,0,0,0,0,-0.0521,-0.0528,-0.0563,-0.0565,-0.0528,-0.0553,-0.0554,-0.0559,-0.0598,-0.0601,-0.0556,-0.0553,-0.0629,-0.0638,-0.0648,-0.0677,-0.0676,-0.0681,-0.0684,-0.0815,-0.0815,-0.0816,0,0,0,0,0,0,-0.0526,-0.053,-0.0564,-0.0541,-0.054,-0.0551,-0.0552,-0.061,-0.06,-0.0552,-0.055,-0.0554,-0.0625,-0.0637,-0.0645,-0.0736,-0.067,-0.0675,-0.0679,-0.0681,-0.0815,-0.0816,0,0,0,0,0,0,-0.0528,-0.0531,-0.054,-0.054,-0.0539,-0.0565,-0.0604,-0.0637,-0.0559,-0.0551,-0.0554,-0.0552,-0.0625,-0.0632,-0.0643,-0.0731,-0.0734,-0.0671,-0.0674,-0.0676,-0.0678,0,0,0,0,0,0,0,-0.053,-0.0503,-0.0549,-0.0539,-0.0539,-0.0587,-0.0587,-0.0588,-0.0558,-0.0557,-0.0555,-0.0553,-0.0643,-0.0648,-0.0653,-0.0726,0,0,-0.067,-0.0672,0,0,0,0,0,0,0,0,-0.0502,-0.0503,-0.0549,-0.0549,-0.055,-0.0587,-0.0587,-0.0588,-0.0558,-0.0557,-0.0555,-0.0553,-0.0644,-0.0648,-0.0653,0,0,0,0,0,0,0,0,0,0,0,0,0,0,0,-0.0549,-0.0549,0,-0.0587,-0.0587,-0.0588,-0.0558,-0.0557,-0.0555,-0.0554,-0.0645,-0.0649,-0.0652,0,0,0,0,0,0,0,0,0,0,0,0,0,0,0,0,0,0,0,0,0,0,0,0,0,0,0,0,0,0,0,0,0,0,0,0,0,0,0,0,0,0,0,0,0,0,0,0,0,0,0,0,0,0,0,0,0,0,0,0,0,0,0,0,0,0,0,0,0]}]],[[{"header":{"parameterUnit":"kt","parameterCategory":2,"dx":1,"dy":1,"la1":30.253999710083008,"la2":30.299108505249023,"lo1":-89.0895004272461,"lo2":-89.04439544677734,"nx":28,"ny":28,"refTime":"2022-09-20T09:00:00:Z","depth":"4","parameterNumber":2,"parameterNumberName":"U-component_of_CURRENTS"},"data":[-0.0136,-0.0083,-0.0022,0.011,0.0204,0.0331,0.0416,0.05,0.0526,0.0676,0.0689,0.0841,0.0869,0.0909,0.0945,0.0963,0.096,0.11,0.11,0.1105,0.1105,0.1106,0.1152,0,0,0,0,0,-0.0108,-0.0072,0.002,0.0169,0.0301,0.0388,0.0525,0.06,0.0749,0.0766,0.0868,0.0873,0.0942,0.095,0.0968,0.1013,0.1047,0.1033,0.1032,0.1105,0.1105,0.1151,0,0,0,0,0,0,-0.0045,-0.002,0.0083,0.0221,0.036,0.0455,0.054,0.0646,0.0749,0.0944,0.0907,0.1,0.1081,0.11,0.1049,0.1075,0.1066,0.1058,0.1061,0.1062,0.109,0.108,0.1024,0,0,0,0,0,0.0025,0.0078,0.0144,0.0295,0.0414,0.0531,0.0677,0.073,0.0903,0.1032,0.1071,0.1127,0.1146,0.1149,0.1163,0.1089,0.1165,0.1124,0.1124,0.114,0.1135,0.1124,0.1126,0.1107,0.1107,0.1108,0.1108,0,0.0117,0.0136,0.0299,0.0369,0.0452,0.0601,0.0698,0.0879,0.0946,0.1111,0.1121,0.1218,0.1263,0.1204,0.1216,0.1164,0.114,0.1126,0.1143,0.1136,0.1124,0.1126,0.1128,0.1108,0.1108,0.1108,0.1108,0,0.0159,0.024,0.031,0.0464,0.053,0.061,0.0814,0.089,0.1041,0.1142,0.1194,0.1298,0.1306,0.1328,0.1281,0.1258,0.1193,0.1154,0.1163,0.115,0.1128,0.113,0.1109,0.1108,0.1108,0.1108,0.1108,0,0.025,0.029,0.0431,0.046,0.056,0.0671,0.0792,0.0889,0.1029,0.1105,0.1225,0.1258,0.133,0.1327,0.1275,0.1232,0.1235,0.118,0.1166,0.1185,0.1186,0.1149,0.1146,0.118,0.1181,0.1181,0.1181,0,0.0291,0.039,0.0442,0.0479,0.0615,0.068,0.0773,0.0903,0.0979,0.1116,0.1194,0.1249,0.1313,0.1282,0.1269,0.1276,0.1232,0.1228,0.1176,0.1174,0.1151,0.1147,0.1182,0.1182,0.1182,0.1182,0.1183,0,0.0358,0.0411,0.0464,0.0586,0.0615,0.0676,0.0815,0.0879,0.1001,0.1074,0.1158,0.1209,0.1261,0.126,0.1253,0.1275,0.124,0.1218,0.1215,0.1188,0.1166,0.1126,0.1163,0.1163,0.1163,0.1163,0.1164,0,0.0393,0.0445,0.0499,0.057,0.0614,0.0709,0.077,0.0856,0.0946,0.1041,0.1085,0.1158,0.1165,0.1222,0.1232,0.1225,0.1217,0.1233,0.1166,0.1163,0.117,0.1205,0.1234,0.1167,0.1167,0.1166,0.1166,0,0.0412,0.0507,0.0517,0.0564,0.0661,0.0697,0.0767,0.0844,0.0912,0.0999,0.1073,0.1108,0.1163,0.1165,0.1184,0.1195,0.1217,0.1194,0.1192,0.1171,0.1201,0.1207,0.1205,0.1233,0.1233,0.1233,0.1169,0,0.0476,0.052,0.0535,0.0599,0.0648,0.0687,0.0755,0.0826,0.0909,0.0954,0.1031,0.1053,0.1102,0.1121,0.1116,0.1155,0.1138,0.1131,0.1119,0.1152,0.1116,0.1115,0.1112,0.1111,0.1109,0.1108,0,0,0.0491,0.0513,0.0566,0.0595,0.0638,0.0715,0.0744,0.0785,0.0864,0.0903,0.0936,0.1009,0.1027,0.1049,0.1071,0.1073,0.1063,0.1107,0.1135,0.1138,0.1141,0.1109,0.1109,0.1106,0.1106,0.1105,0.1105,0,0.0488,0.0541,0.0556,0.0594,0.0666,0.0695,0.0727,0.0792,0.0835,0.0897,0.091,0.0958,0.101,0.1011,0.1012,0.1055,0.105,0.108,0.1128,0.1125,0.113,0.1134,0.1105,0.1105,0.1102,0.1102,0.1102,0,0.0501,0.0537,0.0549,0.0601,0.0636,0.0668,0.0699,0.0753,0.0788,0.0805,0.0888,0.0907,0.0903,0.0945,0.0973,0.0969,0.1031,0.1031,0.1037,0.1025,0.1018,0.1024,0.1029,0.0963,0.0963,0.0963,0,0,0.0507,0.0531,0.0575,0.0601,0.0627,0.0676,0.0709,0.0742,0.0776,0.0802,0.0851,0.0884,0.0892,0.0929,0.0931,0.0981,0.0954,0.1018,0.1024,0.103,0.1021,0.1016,0.1022,0.0962,0.0962,0.0962,0,0,0.0497,0.0542,0.0571,0.06,0.0639,0.0663,0.07,0.0739,0.0783,0.0807,0.083,0.084,0.0894,0.0897,0.0887,0.0956,0.0923,0.0926,0.0978,0.0986,0.0992,0.098,0.0888,0,0,0,0,0,0.0517,0.0532,0.0558,0.057,0.0619,0.0646,0.0655,0.0708,0.0752,0.0772,0.0807,0.0824,0.0884,0.0875,0.0883,0.0937,0.0955,0.0957,0.0958,0.1033,0.1042,0.1049,0,0,0,0,0,0,0.0522,0.0531,0.0558,0.0579,0.0593,0.0644,0.0665,0.0677,0.075,0.0759,0.0813,0.0823,0.082,0.0873,0.0879,0.0931,0.0886,0.0956,0.0957,0.0958,0.1036,0.1043,0.1049,0,0,0,0,0,0.0525,0.0533,0.0601,0.058,0.0592,0.0664,0.0666,0.0677,0.0738,0.076,0.0773,0.0788,0.0818,0.0828,0.0877,0.0929,0.0882,0.0884,0.0957,0.0957,0.0958,0.1039,0,0,0,0,0,0,0.0529,0.0528,0.0604,0.0611,0.0599,0.0663,0.0673,0.0676,0.0737,0.075,0.073,0.0735,0.0816,0.0824,0.0832,0.0928,0.0879,0.0881,0.0882,0.0957,0.0958,0.0958,0,0,0,0,0,0,0.0525,0.0532,0.0607,0.0628,0.0636,0.0663,0.0672,0.069,0.0737,0.07,0.0708,0.0732,0.0821,0.0821,0.0827,0.0851,0.0876,0.0878,0.088,0.0881,0.0958,0.0958,0,0,0,0,0,0,0.0529,0.0535,0.0626,0.0632,0.064,0.0707,0.068,0.0733,0.0744,0.0696,0.0749,0.0752,0.0818,0.0824,0.0824,0.0845,0.0849,0.0876,0.0878,0.0879,0.0879,0,0,0,0,0,0,0,0.0533,0.0478,0.0579,0.0636,0.0643,0.0672,0.0673,0.0674,0.0744,0.0746,0.0749,0.0751,0.0863,0.0866,0.0868,0.0839,0,0,0.0876,0.0877,0,0,0,0,0,0,0,0,0.0477,0.0478,0.0579,0.0581,0.0583,0.0673,0.0673,0.0673,0.0744,0.0746,0.0748,0.075,0.0864,0.0866,0.0868,0,0,0,0,0,0,0,0,0,0,0,0,0,0,0,0.0579,0.0581,0,0.0673,0.0673,0.0673,0.0745,0.0746,0.0748,0.0749,0.0864,0.0866,0.0868,0,0,0,0,0,0,0,0,0,0,0,0,0,0,0,0,0,0,0,0,0,0,0,0,0,0,0,0,0,0,0,0,0,0,0,0,0,0,0,0,0,0,0,0,0,0,0,0,0,0,0,0,0,0,0,0,0,0,0,0,0,0,0,0,0,0,0,0,0]}],[{"header":{"parameterUnit":"kt","parameterCategory":2,"dx":1,"dy":1,"la1":30.253999710083008,"la2":30.299108505249023,"lo1":-89.0895004272461,"lo2":-89.04439544677734,"nx":28,"ny":28,"refTime":"2022-09-20T09:00:00:Z","depth":"4","parameterNumber":3,"parameterNumberName":"V-component_of_CURRENTS"},"data":[0.0038,0.004,0.0072,0.0042,0.0049,0.0064,0.0085,0.0096,0.0069,0.0059,-0.0041,-0.0072,-0.0265,-0.0202,-0.0465,-0.0502,-0.0545,-0.0745,-0.0746,-0.0815,-0.0815,-0.0815,-0.09,0,0,0,0,0,0.0099,0.0093,0.0106,0.0124,0.0154,0.0159,0.0174,0.0179,0.0167,0.0112,0.0061,-0.0059,-0.026,-0.0363,-0.0463,-0.0537,-0.0684,-0.0658,-0.0712,-0.0815,-0.0815,-0.0898,0,0,0,0,0,0,0.0178,0.018,0.0215,0.0216,0.0229,0.0222,0.0222,0.0168,0.0133,0.0037,0.0019,-0.0155,-0.0248,-0.0427,-0.0521,-0.0625,-0.0652,-0.0671,-0.0678,-0.068,-0.0723,-0.0686,-0.058,0,0,0,0,0,0.0244,0.0266,0.0282,0.0306,0.0282,0.0273,0.0206,0.02,0.0092,0.0056,-0.0054,-0.0187,-0.0308,-0.0482,-0.0581,-0.0669,-0.0794,-0.0794,-0.0794,-0.087,-0.0852,-0.0867,-0.0873,-0.0815,-0.0815,-0.0815,-0.0815,0,0.0264,0.0309,0.0337,0.0336,0.0297,0.0251,0.0205,0.0109,0.0057,-0.0071,-0.0105,-0.0241,-0.0373,-0.0497,-0.0659,-0.0765,-0.0804,-0.0794,-0.0875,-0.0853,-0.0866,-0.0872,-0.0878,-0.0816,-0.0816,-0.0816,-0.0816,0,0.0261,0.0285,0.0318,0.0291,0.0275,0.0238,0.0128,0.0078,-0.0038,-0.0124,-0.0175,-0.0359,-0.0476,-0.0608,-0.0715,-0.078,-0.0841,-0.0852,-0.0835,-0.0846,-0.0875,-0.0881,-0.0816,-0.0816,-0.0816,-0.0816,-0.0816,0,0.0215,0.0234,0.0218,0.0235,0.023,0.0145,0.0087,-0.0012,-0.0134,-0.0198,-0.0375,-0.0451,-0.0635,-0.0707,-0.0795,-0.0863,-0.085,-0.0925,-0.0932,-0.0966,-0.0971,-0.0924,-0.0925,-0.0929,-0.093,-0.0931,-0.0932,0,0.0112,0.013,0.0174,0.0166,0.0111,0.0071,0.0009,-0.0127,-0.018,-0.034,-0.0414,-0.0554,-0.0651,-0.0717,-0.0857,-0.0886,-0.0907,-0.0944,-0.0954,-0.0953,-0.093,-0.0929,-0.0933,-0.0933,-0.0933,-0.0934,-0.0934,0,0.0003,0.0025,0.0076,0.0036,0.0028,0.0001,-0.0093,-0.0137,-0.0282,-0.0383,-0.0521,-0.0641,-0.075,-0.0841,-0.0916,-0.0945,-0.0976,-0.1014,-0.1011,-0.0985,-0.1012,-0.093,-0.0969,-0.097,-0.0971,-0.0972,-0.0973,0,-0.0089,-0.0038,-0.0085,-0.0068,-0.0045,-0.0152,-0.0186,-0.0268,-0.0378,-0.0472,-0.0614,-0.0719,-0.0824,-0.0919,-0.097,-0.104,-0.1041,-0.1079,-0.1007,-0.1002,-0.1005,-0.1043,-0.1104,-0.0985,-0.0983,-0.0982,-0.0981,0,-0.0163,-0.0189,-0.0193,-0.0191,-0.0252,-0.026,-0.0311,-0.0352,-0.0402,-0.0546,-0.0604,-0.076,-0.0868,-0.0897,-0.0988,-0.1023,-0.1054,-0.1054,-0.1053,-0.0989,-0.1032,-0.1053,-0.1047,-0.1107,-0.1106,-0.1106,-0.099,0,-0.0216,-0.0236,-0.0241,-0.0253,-0.0288,-0.0294,-0.0349,-0.042,-0.0521,-0.057,-0.0697,-0.0803,-0.0887,-0.096,-0.0992,-0.1049,-0.1025,-0.105,-0.1004,-0.105,-0.0993,-0.0987,-0.1039,-0.1038,-0.1037,-0.1036,0,0,-0.027,-0.0258,-0.0325,-0.0317,-0.0332,-0.042,-0.0401,-0.0448,-0.0526,-0.0565,-0.0634,-0.0791,-0.0857,-0.0908,-0.0958,-0.0992,-0.0972,-0.0983,-0.104,-0.1041,-0.1041,-0.0989,-0.0985,-0.1033,-0.1033,-0.1033,-0.1032,0,-0.0248,-0.0324,-0.0321,-0.034,-0.039,-0.0404,-0.0428,-0.0478,-0.0526,-0.0598,-0.0649,-0.0753,-0.0839,-0.0869,-0.0892,-0.0972,-0.0951,-0.1022,-0.1023,-0.103,-0.1033,-0.1035,-0.0985,-0.0982,-0.1029,-0.1029,-0.1029,0,-0.0258,-0.0281,-0.0299,-0.0333,-0.0365,-0.0362,-0.0408,-0.0457,-0.0468,-0.0526,-0.0605,-0.0683,-0.0716,-0.0792,-0.0836,-0.0816,-0.0903,-0.0916,-0.0922,-0.0871,-0.0874,-0.0878,-0.0882,-0.0828,-0.0828,-0.0827,0,0,-0.0243,-0.0271,-0.0289,-0.0326,-0.0343,-0.0385,-0.0415,-0.0445,-0.0486,-0.052,-0.0581,-0.0643,-0.0691,-0.0733,-0.0771,-0.0839,-0.0794,-0.0893,-0.0902,-0.091,-0.0865,-0.0869,-0.0874,-0.0825,-0.0825,-0.0825,0,0,-0.0223,-0.0247,-0.0281,-0.0317,-0.034,-0.0351,-0.0395,-0.0429,-0.0495,-0.0533,-0.0566,-0.0581,-0.0676,-0.0683,-0.0652,-0.0782,-0.074,-0.0747,-0.0787,-0.0799,-0.0808,-0.0743,-0.0651,0,0,0,0,0,-0.0211,-0.0235,-0.0266,-0.0277,-0.0328,-0.0335,-0.0344,-0.0398,-0.0449,-0.047,-0.0532,-0.0547,-0.0669,-0.0642,-0.0655,-0.0724,-0.08,-0.0804,-0.0809,-0.0876,-0.0888,-0.0899,0,0,0,0,0,0,-0.0215,-0.0224,-0.0265,-0.0274,-0.0287,-0.0334,-0.0362,-0.0375,-0.0447,-0.0457,-0.0534,-0.0547,-0.0555,-0.0638,-0.0649,-0.0715,-0.0647,-0.0802,-0.0805,-0.0809,-0.088,-0.089,-0.0899,0,0,0,0,0,-0.0218,-0.0226,-0.0297,-0.0275,-0.0286,-0.0355,-0.0363,-0.0375,-0.0444,-0.0475,-0.0491,-0.0492,-0.0553,-0.0568,-0.0644,-0.071,-0.064,-0.0644,-0.0804,-0.0807,-0.081,-0.0885,0,0,0,0,0,0,-0.0221,-0.0232,-0.0301,-0.0307,-0.029,-0.0356,-0.0367,-0.0374,-0.046,-0.0475,-0.0428,-0.0434,-0.0551,-0.0563,-0.0574,-0.0709,-0.0634,-0.0638,-0.0641,-0.0806,-0.0809,-0.0811,0,0,0,0,0,0,-0.0229,-0.0236,-0.0304,-0.032,-0.0328,-0.0355,-0.0365,-0.04,-0.0461,-0.0408,-0.0415,-0.043,-0.055,-0.0559,-0.0568,-0.0619,-0.063,-0.0633,-0.0636,-0.0638,-0.0808,-0.081,0,0,0,0,0,0,-0.0233,-0.024,-0.0319,-0.0325,-0.0332,-0.0401,-0.0389,-0.0449,-0.0451,-0.0404,-0.0456,-0.0458,-0.0546,-0.0555,-0.0563,-0.061,-0.0616,-0.063,-0.0632,-0.0634,-0.0635,0,0,0,0,0,0,0,-0.0237,-0.018,-0.0269,-0.0329,-0.0335,-0.0363,-0.0364,-0.0365,-0.0451,-0.0453,-0.0455,-0.0457,-0.0608,-0.0612,-0.0616,-0.0602,0,0,-0.0629,-0.0631,0,0,0,0,0,0,0,0,-0.0179,-0.018,-0.027,-0.0271,-0.0273,-0.0363,-0.0364,-0.0365,-0.0451,-0.0453,-0.0455,-0.0456,-0.0609,-0.0612,-0.0616,0,0,0,0,0,0,0,0,0,0,0,0,0,0,0,-0.027,-0.0271,0,-0.0363,-0.0364,-0.0365,-0.0452,-0.0453,-0.0454,-0.0456,-0.061,-0.0613,-0.0615,0,0,0,0,0,0,0,0,0,0,0,0,0,0,0,0,0,0,0,0,0,0,0,0,0,0,0,0,0,0,0,0,0,0,0,0,0,0,0,0,0,0,0,0,0,0,0,0,0,0,0,0,0,0,0,0,0,0,0,0,0,0,0,0,0,0,0,0,0]}]]]